Year,Month,Day,Hour,Minute,Value (Times are PST for windgust in km/hr)
2017,06,08,00,00,11.30
2017,06,08,00,01,9.60
2017,06,08,00,02,11.30
2017,06,08,00,03,20.90
2017,06,08,00,04,9.60
2017,06,08,00,05,14.50
2017,06,08,00,06,6.40
2017,06,08,00,07,8.10
2017,06,08,00,08,6.40
2017,06,08,00,09,9.60
2017,06,08,00,10,16.10
2017,06,08,00,11,19.30
2017,06,08,00,12,22.50
2017,06,08,00,13,9.60
2017,06,08,00,14,8.10
2017,06,08,00,15,8.10
2017,06,08,00,16,11.30
2017,06,08,00,17,25.70
2017,06,08,00,18,16.10
2017,06,08,00,19,12.90
2017,06,08,00,20,11.30
2017,06,08,00,21,9.60
2017,06,08,00,22,11.30
2017,06,08,00,23,17.70
2017,06,08,00,24,4.80
2017,06,08,00,25,16.10
2017,06,08,00,26,25.70
2017,06,08,00,27,14.50
2017,06,08,00,28,9.60
2017,06,08,00,29,9.60
2017,06,08,00,30,9.60
2017,06,08,00,31,9.60
2017,06,08,00,32,6.40
2017,06,08,00,33,17.70
2017,06,08,00,34,11.30
2017,06,08,00,35,4.80
2017,06,08,00,36,8.10
2017,06,08,00,37,3.20
2017,06,08,00,38,9.60
2017,06,08,00,39,9.60
2017,06,08,00,40,9.60
2017,06,08,00,41,6.40
2017,06,08,00,42,11.30
2017,06,08,00,43,9.60
2017,06,08,00,44,8.10
2017,06,08,00,45,9.60
2017,06,08,00,46,8.10
2017,06,08,00,47,6.40
2017,06,08,00,48,6.40
2017,06,08,00,49,6.40
2017,06,08,00,50,8.10
2017,06,08,00,51,12.90
2017,06,08,00,52,16.10
2017,06,08,00,53,8.10
2017,06,08,00,54,8.10
2017,06,08,00,55,6.40
2017,06,08,00,56,16.10
2017,06,08,00,57,6.40
2017,06,08,00,58,3.20
2017,06,08,00,59,6.40
2017,06,08,01,00,6.40
2017,06,08,01,01,8.10
2017,06,08,01,02,17.70
2017,06,08,01,03,11.30
2017,06,08,01,04,1.60
2017,06,08,01,06,1.60
2017,06,08,01,07,4.80
2017,06,08,01,08,4.80
2017,06,08,01,09,6.40
2017,06,08,01,10,4.80
2017,06,08,01,11,3.20
2017,06,08,01,12,1.60
2017,06,08,01,13,6.40
2017,06,08,01,14,4.80
2017,06,08,01,15,4.80
2017,06,08,01,16,3.20
2017,06,08,01,19,1.60
2017,06,08,01,21,1.60
2017,06,08,01,24,4.80
2017,06,08,01,25,6.40
2017,06,08,01,26,4.80
2017,06,08,01,27,6.40
2017,06,08,01,28,8.10
2017,06,08,01,29,6.40
2017,06,08,01,30,8.10
2017,06,08,01,31,6.40
2017,06,08,01,32,1.60
2017,06,08,01,34,6.40
2017,06,08,01,35,1.60
2017,06,08,01,36,4.80
2017,06,08,01,37,4.80
2017,06,08,01,38,3.20
2017,06,08,01,39,3.20
2017,06,08,01,59,1.60
2017,06,08,02,02,1.60
2017,06,08,02,09,3.20
2017,06,08,02,10,3.20
2017,06,08,02,11,3.20
2017,06,08,02,12,8.10
2017,06,08,02,13,8.10
2017,06,08,02,14,8.10
2017,06,08,02,15,4.80
2017,06,08,02,16,4.80
2017,06,08,02,17,4.80
2017,06,08,02,18,4.80
2017,06,08,02,19,1.60
2017,06,08,02,39,1.60
2017,06,08,03,11,1.60
2017,06,08,03,53,1.60
2017,06,08,04,05,1.60
2017,06,08,04,38,1.60
2017,06,08,04,40,3.20
2017,06,08,04,41,3.20
2017,06,08,04,42,1.60
2017,06,08,04,44,1.60
2017,06,08,04,48,1.60
2017,06,08,04,50,4.80
2017,06,08,04,51,4.80
2017,06,08,04,52,3.20
2017,06,08,04,53,1.60
2017,06,08,04,57,1.60
2017,06,08,05,07,1.60
2017,06,08,05,29,1.60
2017,06,08,05,30,1.60
2017,06,08,05,31,1.60
2017,06,08,05,32,3.20
2017,06,08,05,33,1.60
2017,06,08,06,46,1.60
2017,06,08,08,10,3.20
2017,06,08,08,11,3.20
2017,06,08,08,12,3.20
2017,06,08,08,16,1.60
2017,06,08,08,26,1.60
2017,06,08,08,32,1.60
2017,06,08,08,36,1.60
2017,06,08,08,42,1.60
2017,06,08,08,48,1.60
2017,06,08,08,51,4.80
2017,06,08,08,52,4.80
2017,06,08,08,53,3.20
2017,06,08,08,54,3.20
2017,06,08,08,55,3.20
2017,06,08,08,56,3.20
2017,06,08,08,57,4.80
2017,06,08,09,14,1.60
2017,06,08,09,23,1.60
2017,06,08,09,27,1.60
2017,06,08,09,28,4.80
2017,06,08,09,29,4.80
2017,06,08,09,30,4.80
2017,06,08,09,31,6.40
2017,06,08,09,32,6.40
2017,06,08,09,33,4.80
2017,06,08,09,34,3.20
2017,06,08,09,35,3.20
2017,06,08,09,36,3.20
2017,06,08,09,37,3.20
2017,06,08,09,38,4.80
2017,06,08,09,39,3.20
2017,06,08,09,40,3.20
2017,06,08,09,41,1.60
2017,06,08,09,43,1.60
2017,06,08,10,04,1.60
2017,06,08,10,14,1.60
2017,06,08,10,25,1.60
2017,06,08,10,36,1.60
2017,06,08,10,46,1.60
2017,06,08,10,57,1.60
2017,06,08,11,09,1.60
2017,06,08,11,33,1.60
2017,06,08,11,47,1.60
2017,06,08,11,57,1.60
2017,06,08,11,58,8.10
2017,06,08,11,59,4.80
2017,06,08,12,00,6.40
2017,06,08,12,01,6.40
2017,06,08,12,02,16.10
2017,06,08,12,03,6.40
2017,06,08,12,05,1.60
2017,06,08,12,06,9.60
2017,06,08,12,07,4.80
2017,06,08,12,08,3.20
2017,06,08,12,14,8.10
2017,06,08,12,15,8.10
2017,06,08,12,16,9.60
2017,06,08,12,17,4.80
2017,06,08,12,18,3.20
2017,06,08,12,19,1.60
2017,06,08,12,21,3.20
2017,06,08,12,22,8.10
2017,06,08,12,23,11.30
2017,06,08,12,24,6.40
2017,06,08,12,25,6.40
2017,06,08,12,26,8.10
2017,06,08,12,27,9.60
2017,06,08,12,28,11.30
2017,06,08,12,29,6.40
2017,06,08,12,30,8.10
2017,06,08,12,31,16.10
2017,06,08,12,32,8.10
2017,06,08,12,33,9.60
2017,06,08,12,34,9.60
2017,06,08,12,35,9.60
2017,06,08,12,36,8.10
2017,06,08,12,37,6.40
2017,06,08,12,38,4.80
2017,06,08,12,39,6.40
2017,06,08,12,40,6.40
2017,06,08,12,41,12.90
2017,06,08,12,42,8.10
2017,06,08,12,43,8.10
2017,06,08,12,44,4.80
2017,06,08,12,45,4.80
2017,06,08,12,46,3.20
2017,06,08,12,47,8.10
2017,06,08,12,48,6.40
2017,06,08,12,49,4.80
2017,06,08,12,50,6.40
2017,06,08,12,54,1.60
2017,06,08,12,55,4.80
2017,06,08,12,56,4.80
2017,06,08,12,57,8.10
2017,06,08,12,58,3.20
2017,06,08,12,59,11.30
2017,06,08,13,00,8.10
2017,06,08,13,01,8.10
2017,06,08,13,02,4.80
2017,06,08,13,03,4.80
2017,06,08,13,07,3.20
2017,06,08,13,08,4.80
2017,06,08,13,09,1.60
2017,06,08,13,12,1.60
2017,06,08,13,13,9.60
2017,06,08,13,14,8.10
2017,06,08,13,15,11.30
2017,06,08,13,16,16.10
2017,06,08,13,17,11.30
2017,06,08,13,18,9.60
2017,06,08,13,19,25.70
2017,06,08,13,20,17.70
2017,06,08,13,21,8.10
2017,06,08,13,22,14.50
2017,06,08,13,23,11.30
2017,06,08,13,24,8.10
2017,06,08,13,25,11.30
2017,06,08,13,26,4.80
2017,06,08,13,27,17.70
2017,06,08,13,28,22.50
2017,06,08,13,29,22.50
2017,06,08,13,30,14.50
2017,06,08,13,31,16.10
2017,06,08,13,32,17.70
2017,06,08,13,33,17.70
2017,06,08,13,34,20.90
2017,06,08,13,35,16.10
2017,06,08,13,36,11.30
2017,06,08,13,37,19.30
2017,06,08,13,38,17.70
2017,06,08,13,39,17.70
2017,06,08,13,40,16.10
2017,06,08,13,41,17.70
2017,06,08,13,42,16.10
2017,06,08,13,43,19.30
2017,06,08,13,44,16.10
2017,06,08,13,45,16.10
2017,06,08,13,46,16.10
2017,06,08,13,47,22.50
2017,06,08,13,48,19.30
2017,06,08,13,49,19.30
2017,06,08,13,50,17.70
2017,06,08,13,51,14.50
2017,06,08,13,52,19.30
2017,06,08,13,53,25.70
2017,06,08,13,54,20.90
2017,06,08,13,55,16.10
2017,06,08,13,56,9.60
2017,06,08,13,57,27.40
2017,06,08,13,58,19.30
2017,06,08,13,59,25.70
2017,06,08,14,00,20.90
2017,06,08,14,01,19.30
2017,06,08,14,02,22.50
2017,06,08,14,03,14.50
2017,06,08,14,04,17.70
2017,06,08,14,05,22.50
2017,06,08,14,06,17.70
2017,06,08,14,07,29.00
2017,06,08,14,08,19.30
2017,06,08,14,09,11.30
2017,06,08,14,10,9.60
2017,06,08,14,11,11.30
2017,06,08,14,12,17.70
2017,06,08,14,13,22.50
2017,06,08,14,14,22.50
2017,06,08,14,15,19.30
2017,06,08,14,16,19.30
2017,06,08,14,17,24.20
2017,06,08,14,18,19.30
2017,06,08,14,19,25.70
2017,06,08,14,20,25.70
2017,06,08,14,21,19.30
2017,06,08,14,22,16.10
2017,06,08,14,23,16.10
2017,06,08,14,24,20.90
2017,06,08,14,25,20.90
2017,06,08,14,26,20.90
2017,06,08,14,27,8.10
2017,06,08,14,28,27.40
2017,06,08,14,29,27.40
2017,06,08,14,30,24.20
2017,06,08,14,31,24.20
2017,06,08,14,32,12.90
2017,06,08,14,33,9.60
2017,06,08,14,34,20.90
2017,06,08,14,35,17.70
2017,06,08,14,36,25.70
2017,06,08,14,37,19.30
2017,06,08,14,38,24.20
2017,06,08,14,39,38.60
2017,06,08,14,40,33.80
2017,06,08,14,41,32.20
2017,06,08,14,42,29.00
2017,06,08,14,43,29.00
2017,06,08,14,44,33.80
2017,06,08,14,45,27.40
2017,06,08,14,46,29.00
2017,06,08,14,47,30.60
2017,06,08,14,48,32.20
2017,06,08,14,49,29.00
2017,06,08,14,50,33.80
2017,06,08,14,51,29.00
2017,06,08,14,52,30.60
2017,06,08,14,53,19.30
2017,06,08,14,54,37.00
2017,06,08,14,55,45.10
2017,06,08,14,56,45.10
2017,06,08,14,57,41.80
2017,06,08,14,58,33.80
2017,06,08,14,59,20.90
2017,06,08,15,00,27.40
2017,06,08,15,01,30.60
2017,06,08,15,02,30.60
2017,06,08,15,03,29.00
2017,06,08,15,04,22.50
2017,06,08,15,05,20.90
2017,06,08,15,06,24.20
2017,06,08,15,07,29.00
2017,06,08,15,08,22.50
2017,06,08,15,09,22.50
2017,06,08,15,10,27.40
2017,06,08,15,11,20.90
2017,06,08,15,12,19.30
2017,06,08,15,13,25.70
2017,06,08,15,14,19.30
2017,06,08,15,15,25.70
2017,06,08,15,16,22.50
2017,06,08,15,17,24.20
2017,06,08,15,18,24.20
2017,06,08,15,19,20.90
2017,06,08,15,20,24.20
2017,06,08,15,21,49.90
2017,06,08,15,22,24.20
2017,06,08,15,23,29.00
2017,06,08,15,24,35.40
2017,06,08,15,25,38.60
2017,06,08,15,26,33.80
2017,06,08,15,27,45.10
2017,06,08,15,28,51.50
2017,06,08,15,29,38.60
2017,06,08,15,30,32.20
2017,06,08,15,31,43.50
2017,06,08,15,32,38.60
2017,06,08,15,33,37.00
2017,06,08,15,34,41.80
2017,06,08,15,35,27.40
2017,06,08,15,36,27.40
2017,06,08,15,37,30.60
2017,06,08,15,38,24.20
2017,06,08,15,39,43.50
2017,06,08,15,40,40.20
2017,06,08,15,41,27.40
2017,06,08,15,42,29.00
2017,06,08,15,43,19.30
2017,06,08,15,44,19.30
2017,06,08,15,45,24.20
2017,06,08,15,46,25.70
2017,06,08,15,47,29.00
2017,06,08,15,48,29.00
2017,06,08,15,49,27.40
2017,06,08,15,50,29.00
2017,06,08,15,51,33.80
2017,06,08,15,52,35.40
2017,06,08,15,53,38.60
2017,06,08,15,54,32.20
2017,06,08,15,55,29.00
2017,06,08,15,56,43.50
2017,06,08,15,57,33.80
2017,06,08,15,58,29.00
2017,06,08,15,59,49.90
2017,06,08,16,00,24.20
2017,06,08,16,01,43.50
2017,06,08,16,02,35.40
2017,06,08,16,03,37.00
2017,06,08,16,04,27.40
2017,06,08,16,05,48.30
2017,06,08,16,06,46.70
2017,06,08,16,07,35.40
2017,06,08,16,08,32.20
2017,06,08,16,09,35.40
2017,06,08,16,10,53.10
2017,06,08,16,11,40.20
2017,06,08,16,12,37.00
2017,06,08,16,13,38.60
2017,06,08,16,14,32.20
2017,06,08,16,15,40.20
2017,06,08,16,16,41.80
2017,06,08,16,17,37.00
2017,06,08,16,18,29.00
2017,06,08,16,19,30.60
2017,06,08,16,20,35.40
2017,06,08,16,21,25.70
2017,06,08,16,22,33.80
2017,06,08,16,23,35.40
2017,06,08,16,24,45.10
2017,06,08,16,25,40.20
2017,06,08,16,26,41.80
2017,06,08,16,27,46.70
2017,06,08,16,28,38.60
2017,06,08,16,29,33.80
2017,06,08,16,30,46.70
2017,06,08,16,31,41.80
2017,06,08,16,32,30.60
2017,06,08,16,33,37.00
2017,06,08,16,34,33.80
2017,06,08,16,35,33.80
2017,06,08,16,36,37.00
2017,06,08,16,37,27.40
2017,06,08,16,38,38.60
2017,06,08,16,39,32.20
2017,06,08,16,40,41.80
2017,06,08,16,41,43.50
2017,06,08,16,42,35.40
2017,06,08,16,43,33.80
2017,06,08,16,44,41.80
2017,06,08,16,45,41.80
2017,06,08,16,46,40.20
2017,06,08,16,47,43.50
2017,06,08,16,48,45.10
2017,06,08,16,49,37.00
2017,06,08,16,50,46.70
2017,06,08,16,51,45.10
2017,06,08,16,52,38.60
2017,06,08,16,53,45.10
2017,06,08,16,54,45.10
2017,06,08,16,55,51.50
2017,06,08,16,56,38.60
2017,06,08,16,57,29.00
2017,06,08,16,58,24.20
2017,06,08,16,59,32.20
2017,06,08,17,00,46.70
2017,06,08,17,01,48.30
2017,06,08,17,02,46.70
2017,06,08,17,03,41.80
2017,06,08,17,04,25.70
2017,06,08,17,05,19.30
2017,06,08,17,06,41.80
2017,06,08,17,07,25.70
2017,06,08,17,08,41.80
2017,06,08,17,09,27.40
2017,06,08,17,10,38.60
2017,06,08,17,11,38.60
2017,06,08,17,12,46.70
2017,06,08,17,13,29.00
2017,06,08,17,14,45.10
2017,06,08,17,15,43.50
2017,06,08,17,16,35.40
2017,06,08,17,17,35.40
2017,06,08,17,18,32.20
2017,06,08,17,19,25.70
2017,06,08,17,20,24.20
2017,06,08,17,21,29.00
2017,06,08,17,22,27.40
2017,06,08,17,23,35.40
2017,06,08,17,24,40.20
2017,06,08,17,25,40.20
2017,06,08,17,26,38.60
2017,06,08,17,27,33.80
2017,06,08,17,28,30.60
2017,06,08,17,29,41.80
2017,06,08,17,30,37.00
2017,06,08,17,31,35.40
2017,06,08,17,32,29.00
2017,06,08,17,33,33.80
2017,06,08,17,34,33.80
2017,06,08,17,35,37.00
2017,06,08,17,36,24.20
2017,06,08,17,37,30.60
2017,06,08,17,38,38.60
2017,06,08,17,39,35.40
2017,06,08,17,40,35.40
2017,06,08,17,41,29.00
2017,06,08,17,42,27.40
2017,06,08,17,43,32.20
2017,06,08,17,44,22.50
2017,06,08,17,45,22.50
2017,06,08,17,46,30.60
2017,06,08,17,47,20.90
2017,06,08,17,48,27.40
2017,06,08,17,49,33.80
2017,06,08,17,50,32.20
2017,06,08,17,51,25.70
2017,06,08,17,52,32.20
2017,06,08,17,53,25.70
2017,06,08,17,54,32.20
2017,06,08,17,55,29.00
2017,06,08,17,56,22.50
2017,06,08,17,57,19.30
2017,06,08,17,58,30.60
2017,06,08,17,59,25.70
2017,06,08,18,00,30.60
2017,06,08,18,01,35.40
2017,06,08,18,02,25.70
2017,06,08,18,03,25.70
2017,06,08,18,04,30.60
2017,06,08,18,05,33.80
2017,06,08,18,06,37.00
2017,06,08,18,07,33.80
2017,06,08,18,08,30.60
2017,06,08,18,09,19.30
2017,06,08,18,10,41.80
2017,06,08,18,11,41.80
2017,06,08,18,12,38.60
2017,06,08,18,13,25.70
2017,06,08,18,14,33.80
2017,06,08,18,15,25.70
2017,06,08,18,16,29.00
2017,06,08,18,17,14.50
2017,06,08,18,18,35.40
2017,06,08,18,19,29.00
2017,06,08,18,20,33.80
2017,06,08,18,21,32.20
2017,06,08,18,22,29.00
2017,06,08,18,23,32.20
2017,06,08,18,24,25.70
2017,06,08,18,25,33.80
2017,06,08,18,26,33.80
2017,06,08,18,27,32.20
2017,06,08,18,28,32.20
2017,06,08,18,29,29.00
2017,06,08,18,30,32.20
2017,06,08,18,31,41.80
2017,06,08,18,32,33.80
2017,06,08,18,33,35.40
2017,06,08,18,34,29.00
2017,06,08,18,35,32.20
2017,06,08,18,36,32.20
2017,06,08,18,37,24.20
2017,06,08,18,38,20.90
2017,06,08,18,39,40.20
2017,06,08,18,40,29.00
2017,06,08,18,41,25.70
2017,06,08,18,42,33.80
2017,06,08,18,43,30.60
2017,06,08,18,44,33.80
2017,06,08,18,45,30.60
2017,06,08,18,46,25.70
2017,06,08,18,47,20.90
2017,06,08,18,48,24.20
2017,06,08,18,49,30.60
2017,06,08,18,50,27.40
2017,06,08,18,51,24.20
2017,06,08,18,52,25.70
2017,06,08,18,53,19.30
2017,06,08,18,54,43.50
2017,06,08,18,55,35.40
2017,06,08,18,56,25.70
2017,06,08,18,57,19.30
2017,06,08,18,58,17.70
2017,06,08,18,59,16.10
2017,06,08,19,00,22.50
2017,06,08,19,01,30.60
2017,06,08,19,02,20.90
2017,06,08,19,03,29.00
2017,06,08,19,04,20.90
2017,06,08,19,05,32.20
2017,06,08,19,06,30.60
2017,06,08,19,07,27.40
2017,06,08,19,08,27.40
2017,06,08,19,09,22.50
2017,06,08,19,10,22.50
2017,06,08,19,11,35.40
2017,06,08,19,12,25.70
2017,06,08,19,13,17.70
2017,06,08,19,14,25.70
2017,06,08,19,15,19.30
2017,06,08,19,16,9.60
2017,06,08,19,17,22.50
2017,06,08,19,18,24.20
2017,06,08,19,19,20.90
2017,06,08,19,20,37.00
2017,06,08,19,21,35.40
2017,06,08,19,22,29.00
2017,06,08,19,23,33.80
2017,06,08,19,24,24.20
2017,06,08,19,25,25.70
2017,06,08,19,26,24.20
2017,06,08,19,27,30.60
2017,06,08,19,28,30.60
2017,06,08,19,29,22.50
2017,06,08,19,30,25.70
2017,06,08,19,31,30.60
2017,06,08,19,32,29.00
2017,06,08,19,33,20.90
2017,06,08,19,34,20.90
2017,06,08,19,35,25.70
2017,06,08,19,36,22.50
2017,06,08,19,37,20.90
2017,06,08,19,38,19.30
2017,06,08,19,39,17.70
2017,06,08,19,40,11.30
2017,06,08,19,41,14.50
2017,06,08,19,42,14.50
2017,06,08,19,43,25.70
2017,06,08,19,44,16.10
2017,06,08,19,45,19.30
2017,06,08,19,46,25.70
2017,06,08,19,47,24.20
2017,06,08,19,48,25.70
2017,06,08,19,49,17.70
2017,06,08,19,50,9.60
2017,06,08,19,51,19.30
2017,06,08,19,52,24.20
2017,06,08,19,53,29.00
2017,06,08,19,54,25.70
2017,06,08,19,55,30.60
2017,06,08,19,56,16.10
2017,06,08,19,57,19.30
2017,06,08,19,58,20.90
2017,06,08,19,59,17.70
2017,06,08,20,00,11.30
2017,06,08,20,01,16.10
2017,06,08,20,02,17.70
2017,06,08,20,03,19.30
2017,06,08,20,04,19.30
2017,06,08,20,05,24.20
2017,06,08,20,06,25.70
2017,06,08,20,07,24.20
2017,06,08,20,08,22.50
2017,06,08,20,09,20.90
2017,06,08,20,10,20.90
2017,06,08,20,11,17.70
2017,06,08,20,12,19.30
2017,06,08,20,13,22.50
2017,06,08,20,14,24.20
2017,06,08,20,15,14.50
2017,06,08,20,16,16.10
2017,06,08,20,17,24.20
2017,06,08,20,18,19.30
2017,06,08,20,19,16.10
2017,06,08,20,20,24.20
2017,06,08,20,21,14.50
2017,06,08,20,22,17.70
2017,06,08,20,23,27.40
2017,06,08,20,24,27.40
2017,06,08,20,25,22.50
2017,06,08,20,26,20.90
2017,06,08,20,27,24.20
2017,06,08,20,28,16.10
2017,06,08,20,29,11.30
2017,06,08,20,30,9.60
2017,06,08,20,31,24.20
2017,06,08,20,32,14.50
2017,06,08,20,33,17.70
2017,06,08,20,34,27.40
2017,06,08,20,35,20.90
2017,06,08,20,36,9.60
2017,06,08,20,37,22.50
2017,06,08,20,38,25.70
2017,06,08,20,39,22.50
2017,06,08,20,40,20.90
2017,06,08,20,41,27.40
2017,06,08,20,42,19.30
2017,06,08,20,43,11.30
2017,06,08,20,44,20.90
2017,06,08,20,45,24.20
2017,06,08,20,46,20.90
2017,06,08,20,47,11.30
2017,06,08,20,48,11.30
2017,06,08,20,49,17.70
2017,06,08,20,50,14.50
2017,06,08,20,51,14.50
2017,06,08,20,52,8.10
2017,06,08,20,53,14.50
2017,06,08,20,54,16.10
2017,06,08,20,55,12.90
2017,06,08,20,56,8.10
2017,06,08,20,57,14.50
2017,06,08,20,58,11.30
2017,06,08,20,59,9.60
2017,06,08,21,00,8.10
2017,06,08,21,01,8.10
2017,06,08,21,02,11.30
2017,06,08,21,03,4.80
2017,06,08,21,04,11.30
2017,06,08,21,05,8.10
2017,06,08,21,06,12.90
2017,06,08,21,07,9.60
2017,06,08,21,08,8.10
2017,06,08,21,09,9.60
2017,06,08,21,10,8.10
2017,06,08,21,11,3.20
2017,06,08,21,14,6.40
2017,06,08,21,15,8.10
2017,06,08,21,16,3.20
2017,06,08,21,19,1.60
2017,06,08,21,25,4.80
2017,06,08,21,29,1.60
2017,06,08,21,34,4.80
2017,06,08,21,46,1.60
2017,06,08,21,48,1.60
2017,06,08,21,49,1.60
2017,06,08,21,56,9.60
2017,06,08,21,58,1.60
2017,06,08,22,05,1.60
2017,06,08,22,08,4.80
2017,06,08,22,09,4.80
2017,06,08,22,10,6.40
2017,06,08,22,11,6.40
2017,06,08,22,12,3.20
2017,06,08,22,13,3.20
2017,06,08,22,14,4.80
2017,06,08,22,15,6.40
2017,06,08,22,16,9.60
2017,06,08,22,17,8.10
2017,06,08,22,18,4.80
2017,06,08,22,19,6.40
2017,06,08,22,20,6.40
2017,06,08,22,21,1.60
2017,06,08,22,25,4.80
2017,06,08,22,26,4.80
2017,06,08,22,27,4.80
2017,06,08,22,37,1.60
2017,06,08,22,56,3.20
2017,06,08,22,57,1.60
2017,06,08,22,58,6.40
2017,06,08,22,59,4.80
2017,06,08,23,00,1.60
2017,06,08,23,01,8.10
2017,06,08,23,02,1.60
2017,06,08,23,04,1.60
2017,06,08,23,08,6.40
2017,06,08,23,09,4.80
2017,06,08,23,11,4.80
2017,06,08,23,12,3.20
2017,06,08,23,13,6.40
2017,06,08,23,14,4.80
2017,06,08,23,15,1.60
2017,06,08,23,16,4.80
2017,06,08,23,17,1.60
2017,06,08,23,23,1.60
2017,06,08,23,35,6.40
2017,06,08,23,36,8.10
2017,06,08,23,37,3.20
2017,06,08,23,38,3.20
2017,06,08,23,47,1.60
